JAL569 RJTT-RJCM

Flight info

Callsign JAL569
Flight time 1h 11m
Altitude 35000
Route BRUCE AGRIS Y11 YTE Y111 OZORA
Aircraft B738/M-SDGIJ1LRWY/SB1

Departure

Time 2026-05-04 05:47
Airport Tokyo Haneda International Airport (RJTT)

Arrival

Time 2026-05-04 06:59
Airport Memanbetsu Airport (RJCM)
Time Latitude Longitude Altitude Speed Heading
2026-05-04 05:28 35.55279 139.78188 35 ft 0 kts 137°
2026-05-04 05:37 35.55280 139.78186 35 ft 1 kts 138°
2026-05-04 05:37 35.55291 139.78174 35 ft 2 kts 137°
2026-05-04 05:37 35.55302 139.78162 35 ft 2 kts 137°
2026-05-04 05:38 35.55324 139.78137 35 ft 2 kts 137°
2026-05-04 05:38 35.55336 139.78128 35 ft 2 kts 188°
2026-05-04 05:38 35.55347 139.78136 35 ft 0 kts 235°
2026-05-04 05:39 35.55340 139.78124 35 ft 0 kts 236°
2026-05-04 05:40 35.55339 139.78122 35 ft 1 kts 237°
2026-05-04 05:41 35.55316 139.78073 35 ft 11 kts 240°
2026-05-04 05:41 35.55271 139.77979 34 ft 13 kts 240°
2026-05-04 05:41 35.55229 139.77882 33 ft 11 kts 256°
2026-05-04 05:41 35.55265 139.77809 33 ft 12 kts 328°
2026-05-04 05:42 35.55360 139.77742 35 ft 18 kts 329°
2026-05-04 05:42 35.55470 139.77663 35 ft 17 kts 330°
2026-05-04 05:42 35.55577 139.77588 33 ft 18 kts 329°
2026-05-04 05:42 35.55689 139.77508 31 ft 18 kts 329°
2026-05-04 05:43 35.55794 139.77434 29 ft 14 kts 330°
2026-05-04 05:43 35.55843 139.77365 28 ft 9 kts 269°
2026-05-04 05:43 35.55801 139.77303 29 ft 11 kts 214°
2026-05-04 05:45 35.54820 139.77743 24 ft 127 kts 151°
2026-05-04 05:45 35.53904 139.78404 94 ft 169 kts 154°
2026-05-04 05:47 35.45532 139.85522 3733 ft 286 kts 122°
2026-05-04 05:47 35.44983 139.87927 4304 ft 307 kts 99°
2026-05-04 05:47 35.45229 139.90576 5090 ft 317 kts 71°
2026-05-04 05:48 35.46245 139.92979 5818 ft 321 kts 58°
2026-05-04 05:48 35.47434 139.95277 6622 ft 321 kts 50°
2026-05-04 05:48 35.49054 139.97134 7379 ft 319 kts 27°
2026-05-04 05:48 35.51043 139.98164 8095 ft 313 kts
2026-05-04 05:49 35.53159 139.98469 8845 ft 306 kts 348°
2026-05-04 05:49 35.55222 139.98061 9634 ft 296 kts 334°
2026-05-04 05:49 35.57193 139.97348 10355 ft 301 kts 332°
2026-05-04 05:49 35.59259 139.96587 10769 ft 320 kts 333°
2026-05-04 05:51 35.77256 139.95349 15093 ft 373 kts 326°
2026-05-04 05:51 35.79621 139.94186 15874 ft 375 kts 324°
2026-05-04 05:52 35.82071 139.92955 16705 ft 376 kts 325°
2026-05-04 05:52 35.84488 139.91771 17234 ft 386 kts 324°
2026-05-04 05:52 35.87047 139.90533 17921 ft 391 kts 325°
2026-05-04 05:52 35.89575 139.89340 18420 ft 400 kts 326°
2026-05-04 05:53 35.92200 139.88104 19161 ft 402 kts 326°
2026-05-04 05:54 36.13594 139.91682 23170 ft 498 kts 13°
2026-05-04 05:55 36.16800 139.93202 23912 ft 493 kts 12°
2026-05-04 05:55 36.20106 139.94405 24228 ft 491 kts
2026-05-04 05:55 36.23449 139.94804 24867 ft 476 kts 350°
2026-05-04 05:55 36.26706 139.94803 25295 ft 476 kts 347°
2026-05-04 05:56 36.30065 139.94679 25658 ft 481 kts 346°
2026-05-04 05:56 36.33404 139.94533 26026 ft 488 kts 346°
2026-05-04 05:56 36.36840 139.94405 26395 ft 494 kts 347°
2026-05-04 05:56 36.40287 139.94301 26944 ft 495 kts 347°
2026-05-04 05:57 36.43729 139.94223 27313 ft 502 kts 349°
2026-05-04 05:57 36.47253 139.94286 27776 ft 509 kts 351°
2026-05-04 05:57 36.50809 139.94452 28157 ft 514 kts 351°
2026-05-04 05:57 36.54412 139.94649 28342 ft 524 kts 352°
2026-05-04 05:58 36.58043 139.94841 28801 ft 525 kts 352°
2026-05-04 05:58 36.61670 139.95030 29370 ft 525 kts 352°
2026-05-04 05:58 36.65311 139.95204 29974 ft 523 kts 351°
2026-05-04 05:58 36.68949 139.95371 30212 ft 530 kts 351°
2026-05-04 05:59 36.72652 139.95532 30401 ft 537 kts 351°
2026-05-04 05:59 36.76417 139.95700 31089 ft 533 kts 352°
2026-05-04 05:59 36.80104 139.95872 31605 ft 533 kts 350°
2026-05-04 05:59 36.83865 139.96083 32001 ft 538 kts 353°
2026-05-04 06:00 36.87606 139.96533 32562 ft 542 kts 357°
2026-05-04 06:00 36.91354 139.97275 33372 ft 540 kts
2026-05-04 06:00 36.95025 139.98192 33838 ft 543 kts
2026-05-04 06:00 36.98709 139.99178 34453 ft 539 kts
2026-05-04 06:01 37.02381 140.00130 34582 ft 542 kts
2026-05-04 06:01 37.06083 140.01048 34585 ft 542 kts
2026-05-04 06:03 37.35346 140.08530 34608 ft 542 kts
2026-05-04 06:05 37.68722 140.17264 34618 ft 550 kts
2026-05-04 06:06 37.76156 140.19276 34621 ft 545 kts
2026-05-04 06:06 37.83569 140.21271 34618 ft 544 kts
2026-05-04 06:07 37.90992 140.23161 34608 ft 549 kts
2026-05-04 06:07 37.98486 140.25076 34604 ft 544 kts
2026-05-04 06:08 38.05899 140.27095 34609 ft 549 kts
2026-05-04 06:08 38.13332 140.29135 34604 ft 544 kts
2026-05-04 06:09 38.20740 140.31010 34596 ft 546 kts
2026-05-04 06:11 38.49038 140.46449 34607 ft 586 kts 36°
2026-05-04 06:13 38.74098 140.73111 34562 ft 587 kts 36°
2026-05-04 06:14 38.96149 140.96536 34540 ft 591 kts 37°
2026-05-04 06:15 39.02478 141.03337 34536 ft 593 kts 35°
2026-05-04 06:15 39.08780 141.10117 34533 ft 592 kts 37°
2026-05-04 06:16 39.15103 141.16818 34526 ft 588 kts 37°
2026-05-04 06:16 39.21377 141.23569 34521 ft 590 kts 36°
2026-05-04 06:17 39.27713 141.30423 34518 ft 591 kts 36°
2026-05-04 06:17 39.33958 141.37164 34515 ft 588 kts 36°
2026-05-04 06:18 39.40173 141.44003 34515 ft 588 kts 37°
2026-05-04 06:20 39.65046 141.71362 34500 ft 586 kts 38°
2026-05-04 06:21 39.80664 141.88388 34472 ft 587 kts 39°
2026-05-04 06:22 39.86496 141.95853 34452 ft 588 kts 48°
2026-05-04 06:25 40.19876 142.56339 34443 ft 589 kts 56°
2026-05-04 06:26 40.24625 142.65048 34437 ft 591 kts 56°
2026-05-04 06:26 40.29356 142.73889 34443 ft 589 kts 57°
2026-05-04 06:27 40.41015 142.95978 34453 ft 591 kts 57°
2026-05-04 06:28 40.45712 143.04799 34450 ft 590 kts 57°
2026-05-04 06:28 40.50387 143.13641 34447 ft 592 kts 58°
2026-05-04 06:29 40.55330 143.22365 34440 ft 592 kts 47°
2026-05-04 06:29 40.58287 143.26054 34440 ft 587 kts 33°
2026-05-04 06:29 40.61658 143.28925 34447 ft 581 kts 23°
2026-05-04 06:30 40.68939 143.33296 34441 ft 568 kts 10°
2026-05-04 06:30 40.76407 143.36244 34440 ft 561 kts
2026-05-04 06:31 40.83973 143.38983 34440 ft 562 kts
2026-05-04 06:31 40.91533 143.41826 34431 ft 567 kts
2026-05-04 06:33 41.21621 143.53691 34425 ft 567 kts
2026-05-04 06:34 41.29218 143.56644 34424 ft 566 kts
2026-05-04 06:34 41.36738 143.59604 34476 ft 564 kts
2026-05-04 06:36 41.67066 143.71689 34413 ft 570 kts
2026-05-04 06:37 41.74689 143.74731 34416 ft 574 kts
2026-05-04 06:37 41.82279 143.77768 34414 ft 569 kts
2026-05-04 06:38 41.89843 143.80814 34141 ft 565 kts
2026-05-04 06:40 42.16166 143.91475 29459 ft 557 kts
2026-05-04 06:40 42.19846 143.92975 28870 ft 553 kts
2026-05-04 06:40 42.23535 143.94470 28270 ft 550 kts
2026-05-04 06:40 42.27211 143.95987 27662 ft 548 kts
2026-05-04 06:41 42.30835 143.97487 27044 ft 545 kts
2026-05-04 06:41 42.34438 143.98970 26446 ft 542 kts
2026-05-04 06:41 42.38020 144.00421 25847 ft 539 kts
2026-05-04 06:41 42.41626 144.01828 25239 ft 535 kts
2026-05-04 06:42 42.45191 144.03239 24634 ft 533 kts
2026-05-04 06:42 42.48750 144.04691 24037 ft 530 kts
2026-05-04 06:42 42.52241 144.06082 23467 ft 523 kts
2026-05-04 06:44 42.75856 144.12955 19226 ft 469 kts
2026-05-04 06:44 42.79034 144.13812 18644 ft 460 kts
2026-05-04 06:44 42.82122 144.14650 18067 ft 451 kts
2026-05-04 06:45 42.85149 144.15465 17509 ft 442 kts
2026-05-04 06:45 42.88155 144.16228 16938 ft 432 kts
2026-05-04 06:45 42.91079 144.16951 16399 ft 423 kts
2026-05-04 06:45 42.93924 144.17658 15875 ft 414 kts
2026-05-04 06:46 42.96738 144.18359 15366 ft 405 kts
2026-05-04 06:46 42.99473 144.19045 14852 ft 398 kts
2026-05-04 06:46 43.02191 144.19679 14330 ft 389 kts
2026-05-04 06:46 43.04828 144.19984 13773 ft 378 kts 354°
2026-05-04 06:48 43.22259 144.19974 10261 ft 339 kts 353°
2026-05-04 06:48 43.24604 144.19965 10098 ft 327 kts 353°
2026-05-04 06:49 43.26822 144.19955 9896 ft 318 kts 353°
2026-05-04 06:50 43.41927 144.19852 7281 ft 299 kts 352°
2026-05-04 06:51 43.43948 144.19852 7079 ft 287 kts 352°
2026-05-04 06:51 43.45895 144.19855 6995 ft 272 kts 351°
2026-05-04 06:51 43.47751 144.19844 6945 ft 263 kts 352°
2026-05-04 06:51 43.49591 144.19809 6781 ft 264 kts 349°
2026-05-04 06:52 43.51429 144.19676 6431 ft 265 kts 347°
2026-05-04 06:52 43.53250 144.19484 6173 ft 262 kts 348°
2026-05-04 06:52 43.55059 144.19318 5893 ft 258 kts 349°
2026-05-04 06:52 43.56852 144.19167 5631 ft 255 kts 349°
2026-05-04 06:53 43.58585 144.19008 5379 ft 251 kts 349°
2026-05-04 06:53 43.60329 144.18852 5123 ft 248 kts 351°
2026-05-04 06:53 43.62050 144.18718 4863 ft 245 kts 351°
2026-05-04 06:53 43.63731 144.18567 4539 ft 244 kts 351°
2026-05-04 06:54 43.65422 144.18419 4242 ft 239 kts 352°
2026-05-04 06:54 43.67055 144.18289 3890 ft 234 kts 353°
2026-05-04 06:54 43.68667 144.18152 3598 ft 226 kts 352°
2026-05-04 06:54 43.70196 144.18013 3444 ft 212 kts 353°
2026-05-04 06:55 43.71623 144.17896 3270 ft 203 kts 353°
2026-05-04 06:55 43.73014 144.17775 2993 ft 199 kts 353°
2026-05-04 06:55 43.74394 144.17656 2713 ft 195 kts 353°
2026-05-04 06:55 43.75740 144.17540 2432 ft 192 kts 354°
2026-05-04 06:56 43.77045 144.17427 2173 ft 188 kts 354°
2026-05-04 06:57 43.84504 144.16788 623 ft 143 kts 353°
2026-05-04 06:58 43.85493 144.16704 437 ft 144 kts 356°
2026-05-04 06:58 43.86490 144.16615 222 ft 144 kts 351°
2026-05-04 06:58 43.87474 144.16478 103 ft 135 kts 355°
2026-05-04 06:58 43.88185 144.16388 90 ft 65 kts 353°
2026-05-04 06:59 43.88504 144.16347 88 ft 33 kts 354°
2026-05-04 06:59 43.88671 144.16324 85 ft 13 kts 354°
2026-05-04 06:59 43.88728 144.16260 87 ft 9 kts 276°
2026-05-04 06:59 43.88725 144.16187 88 ft 6 kts 264°
2026-05-04 07:01 43.88120 144.16162 99 ft 11 kts 193°
2026-05-04 07:01 43.88095 144.16074 99 ft 12 kts 268°
2026-05-04 07:02 43.88090 144.15991 100 ft 3 kts 264°
2026-05-04 07:02 43.88090 144.15981 100 ft 0 kts 264°